GW3103 Weather Reports


time (UTC)temp
C
wind
direction
speed
KPH
gust
KPH
rain 1hr
cm
rain 24hr
cm
rain mn
cm
humidity
%
barometer
mb
20260504141327 16 292 4.8 4.8 0.00 0.00 0.00 45 1012.0
20260504140824 16 209 4.8 9.7 0.00 0.00 0.00 45 1012.1
20260504140319 16 298 11.3 17.7 0.00 0.00 0.00 44 1012.1
20260504130748 13 54 0.0 0.0 0.00 0.00 0.00 52 1012.6
20260504130244 13 3 1.6 1.6 0.00 0.00 0.00 52 1012.6
20260504120208 8 99 0.0 1.6 0.00 0.00 0.00 76 1013.3
20260504110636 5 56 0.0 0.0 0.00 0.00 0.00 86 1013.0
20260504110131 3 56 0.0 0.0 0.00 0.00 0.00 88 1012.8
20260504100557 0 26 0.0 0.0 0.00 0.00 0.00 92 1013.0
20260504081951 2 25 0.0 0.0 0.00 0.00 0.00 88 1013.2
20260504081448 2 26 0.0 0.0 0.00 0.00 0.00 88 1013.0
20260504080943 2 26 0.0 0.0 0.00 0.00 0.00 88 1012.8
20260504080441 2 26 0.0 0.0 0.00 0.00 0.00 88 1013.1
20260504070408 3 26 0.0 0.0 0.00 0.00 0.00 83 1012.9
20260504050253 6 25 0.0 0.0 0.00 0.00 0.00 72 1012.7
20260504045750 6 25 0.0 0.0 0.00 0.00 0.00 71 1012.7
20260504045245 6 24 0.0 0.0 0.00 0.00 0.00 70 1012.9
20260504044743 7 23 0.0 0.0 0.00 0.00 0.00 66 1013.0
20260504044240 7 2 0.0 0.0 0.00 0.00 0.00 63 1012.6
20260504043737 6 207 0.0 0.0 0.00 0.00 0.00 64 1012.6
20260504043234 6 36 0.0 0.0 0.00 0.00 0.00 69 1012.6
20260504042732 6 32 0.0 0.0 0.00 0.00 0.00 69 1012.7
20260504042228 6 359 0.0 0.0 0.00 0.00 0.00 69 1012.5
20260504041724 6 359 0.0 0.0 0.00 0.00 0.00 71 1012.6
20260504041220 5 359 0.0 0.0 0.00 0.00 0.00 73 1012.6
20260504040716 5 359 0.0 0.0 0.00 0.00 0.00 72 1012.6
20260504040214 5 359 0.0 0.0 0.00 0.00 0.00 74 1012.5
20260504035710 5 359 0.0 0.0 0.00 0.00 0.00 72 1012.3
20260504035208 5 359 0.0 0.0 0.00 0.00 0.00 72 1012.3
20260504034705 5 359 0.0 0.0 0.00 0.00 0.00 72 1012.5
20260504034202 6 359 0.0 0.0 0.00 0.00 0.00 72 1012.3
20260504033659 6 359 0.0 0.0 0.00 0.00 0.00 72 1012.2
20260504033156 6 359 0.0 0.0 0.00 0.00 0.00 72 1012.3
20260504032653 6 359 0.0 0.0 0.00 0.00 0.00 72 1012.1
20260504032150 6 359 0.0 0.0 0.00 0.00 0.00 69 1012.2
20260504031647 6 359 0.0 1.6 0.00 0.00 0.00 69 1012.2
20260504031144 6 359 0.0 0.0 0.00 0.00 0.00 69 1011.9
20260504030640 7 359 0.0 0.0 0.00 0.00 0.00 68 1012.2
20260504030137 7 359 0.0 0.0 0.00 0.00 0.00 68 1012.0
20260504025634 7 359 0.0 0.0 0.00 0.00 0.00 65 1012.0
20260504025131 7 359 0.0 0.0 0.00 0.00 0.00 64 1012.2
20260504024628 7 359 0.0 0.0 0.00 0.00 0.00 65 1012.3
20260504024125 7 359 0.0 0.0 0.00 0.00 0.00 63 1012.2
20260504023621 8 359 0.0 0.0 0.00 0.00 0.00 61 1012.1
20260504023117 8 359 0.0 0.0 0.00 0.00 0.00 59 1012.3
20260504022614 8 359 0.0 0.0 0.00 0.00 0.00 60 1012.1
20260504022110 8 358 0.0 0.0 0.00 0.00 0.00 59 1012.0
20260504021608 7 359 0.0 0.0 0.00 0.00 0.00 62 1012.1
20260504021104 7 359 0.0 0.0 0.00 0.00 0.00 63 1012.3
20260504020601 7 359 0.0 0.0 0.00 0.00 0.00 64 1011.9
20260504020057 8 358 0.0 0.0 0.00 0.00 0.00 61 1012.0
20260504015554 8 359 0.0 0.0 0.00 0.00 0.00 61 1011.9
20260504015050 8 358 0.0 0.0 0.00 0.00 0.00 59 1012.0
20260504014546 8 358 0.0 0.0 0.00 0.00 0.00 60 1011.8
20260504014044 8 358 0.0 0.0 0.00 0.00 0.00 59 1011.7
20260504013541 8 358 0.0 0.0 0.00 0.00 0.00 58 1012.1
20260504013037 8 358 0.0 0.0 0.00 0.00 0.00 58 1011.9
20260504012530 8 358 0.0 0.0 0.00 0.00 0.00 60 1011.8
20260504012027 9 358 0.0 0.0 0.00 0.00 0.00 58 1011.6
20260504011524 9 358 0.0 0.0 0.00 0.00 0.00 57 1011.8
20260504011020 10 358 0.0 0.0 0.00 0.00 0.00 55 1011.8
20260504010516 10 358 0.0 0.0 0.00 0.00 0.00 55 1011.4
20260504010012 10 358 0.0 0.0 0.00 0.00 0.00 54 1011.6
20260504005509 10 357 0.0 0.0 0.00 0.00 0.00 54 1011.7
20260504005007 11 357 0.0 0.0 0.00 0.00 0.00 53 1011.7
20260504004504 11 39 0.0 0.0 0.00 0.00 0.00 48 1011.4
20260504004001 11 42 0.0 0.0 0.00 0.00 0.00 50 1011.4
20260504003457 11 32 0.0 1.6 0.00 0.00 0.00 49 1011.3
20260504002954 11 30 0.0 0.0 0.00 0.00 0.00 46 1011.3
20260504002451 12 27 0.0 0.0 0.00 0.00 0.00 46 1011.1
20260504001948 12 308 1.6 3.2 0.00 0.00 0.00 45 1011.1
20260504001445 12 67 0.0 0.0 0.00 0.00 0.00 45 1011.0
20260504000942 12 43 0.0 0.0 0.00 0.00 0.00 46 1011.1
20260504000439 12 317 1.6 3.2 0.00 0.00 0.00 43 1010.9
20260503235936 13 82 0.0 1.6 0.00 0.00 0.00 44 1011.1
20260503235434 13 315 3.2 3.2 0.00 0.00 0.00 42 1010.8
20260503234931 13 313 1.6 3.2 0.00 0.00 0.00 42 1011.0
20260503234429 13 300 3.2 4.8 0.00 0.00 0.00 41 1010.8
20260503233927 13 249 4.8 8.0 0.00 0.00 0.00 40 1010.7
20260503233423 14 321 1.6 3.2 0.00 0.00 0.00 39 1010.7
20260503232919 14 313 3.2 3.2 0.00 0.00 0.00 38 1010.6
20260503232416 15 145 4.8 8.0 0.00 0.00 0.00 38 1010.6
20260503231914 15 295 9.7 12.9 0.00 0.00 0.00 38 1010.8
20260503231411 15 354 6.4 9.7 0.00 0.00 0.00 38 1010.8
20260503230908 15 30 1.6 3.2 0.00 0.00 0.00 38 1010.5
20260503230404 15 224 6.4 9.7 0.00 0.00 0.00 37 1010.4
20260503225902 15 54 1.6 3.2 0.00 0.00 0.00 37 1010.4
20260503225358 16 251 4.8 8.0 0.00 0.00 0.00 36 1010.4
20260503224854 16 32 0.0 0.0 0.00 0.00 0.00 36 1010.6
20260503224351 15 357 3.2 4.8 0.00 0.00 0.00 36 1010.5
20260503223849 16 317 8.0 11.3 0.00 0.00 0.00 36 1010.4
20260503223347 16 256 9.7 12.9 0.00 0.00 0.00 36 1010.3
20260503222842 16 7 3.2 4.8 0.00 0.00 0.00 35 1010.3
20260503222341 15 329 8.0 11.3 0.00 0.00 0.00 36 1010.4
20260503221838 15 69 1.6 1.6 0.00 0.00 0.00 37 1010.5
20260503221337 15 292 6.4 9.7 0.00 0.00 0.00 37 1010.5
20260503220832 16 2 4.8 9.7 0.00 0.00 0.00 36 1010.6
20260503220330 16 27 4.8 4.8 0.00 0.00 0.00 36 1010.3
20260503215826 16 248 8.0 12.9 0.00 0.00 0.00 35 1010.4
20260503215324 16 28 1.6 3.2 0.00 0.00 0.00 34 1010.4
20260503214821 16 232 8.0 11.3 0.00 0.00 0.00 36 1010.5
20260503214318 16 347 3.2 4.8 0.00 0.00 0.00 35 1010.3
20260503213816 16 47 12.9 14.5 0.00 0.00 0.00 34 1010.2
20260503213313 16 298 8.0 9.7 0.00 0.00 0.00 34 1010.5
20260503212804 16 347 6.4 9.7 0.00 0.00 0.00 35 1010.0
20260503212304 15 53 6.4 9.7 0.00 0.00 0.00 34 1010.2
20260503211759 15 354 4.8 4.8 0.00 0.00 0.00 35 1010.1
20260503211255 16 326 3.2 4.8 0.00 0.00 0.00 35 1010.1
20260503210755 15 38 4.8 11.3 0.00 0.00 0.00 34 1010.1
20260503210253 16 43 4.8 8.0 0.00 0.00 0.00 34 1010.2
20260503205748 15 15 4.8 8.0 0.00 0.00 0.00 35 1010.1
20260503205245 15 327 4.8 4.8 0.00 0.00 0.00 35 1010.2
20260503204741 15 27 1.6 1.6 0.00 0.00 0.00 34 1010.2
20260503204239 15 3 3.2 3.2 0.00 0.00 0.00 34 1010.2
20260503203737 15 327 3.2 4.8 0.00 0.00 0.00 34 1010.3
20260503203234 16 281 8.0 11.3 0.00 0.00 0.00 34 1010.2
20260503202731 15 41 1.6 1.6 0.00 0.00 0.00 33 1010.2
20260503202229 15 329 8.0 11.3 0.00 0.00 0.00 34 1010.1
20260503201726 15 261 12.9 17.7 0.00 0.00 0.00 33 1010.5
20260503201224 15 24 4.8 8.0 0.00 0.00 0.00 35 1010.5
20260503200720 16 302 9.7 14.5 0.00 0.00 0.00 34 1010.6
20260503200216 16 282 6.4 8.0 0.00 0.00 0.00 33 1010.6
20260503195713 15 305 11.3 12.9 0.00 0.00 0.00 34 1010.7
20260503195210 15 22 3.2 3.2 0.00 0.00 0.00 35 1010.8
20260503194707 14 55 3.2 4.8 0.00 0.00 0.00 36 1010.6
20260503194203 15 33 16.1 20.9 0.00 0.00 0.00 34 1010.8
20260503193700 15 302 1.6 3.2 0.00 0.00 0.00 34 1010.9
20260503193155 15 228 6.4 14.5 0.00 0.00 0.00 35 1011.0
20260503192651 14 304 4.8 8.0 0.00 0.00 0.00 36 1011.0
20260503192146 14 349 6.4 8.0 0.00 0.00 0.00 36 1011.0
20260503191638 15 32 3.2 4.8 0.00 0.00 0.00 37 1011.1
20260503191135 14 45 8.0 12.9 0.00 0.00 0.00 36 1011.0
20260503190632 15 240 8.0 11.3 0.00 0.00 0.00 35 1011.2
20260503190129 15 25 4.8 9.7 0.00 0.00 0.00 36 1011.1
20260503185625 14 324 4.8 4.8 0.00 0.00 0.00 37 1011.4
20260503185120 13 324 8.0 12.9 0.00 0.00 0.00 37 1011.4
20260503184616 13 3 6.4 8.0 0.00 0.00 0.00 37 1011.4
20260503184113 13 13 6.4 8.0 0.00 0.00 0.00 37 1011.4
20260503183609 13 45 8.0 9.7 0.00 0.00 0.00 37 1011.5
20260503183107 13 20 8.0 14.5 0.00 0.00 0.00 36 1011.6
20260503182605 13 263 4.8 8.0 0.00 0.00 0.00 40 1011.6
20260503182103 13 240 9.7 12.9 0.00 0.00 0.00 37 1011.8
20260503181559 13 354 6.4 9.7 0.00 0.00 0.00 38 1011.8
20260503181056 13 358 4.8 8.0 0.00 0.00 0.00 38 1011.5
20260503180553 12 285 8.0 11.3 0.00 0.00 0.00 38 1011.7
20260503180050 13 163 4.8 4.8 0.00 0.00 0.00 38 1011.8
20260503175547 13 246 6.4 12.9 0.00 0.00 0.00 37 1011.8
20260503175045 13 285 11.3 16.1 0.00 0.00 0.00 37 1011.8
20260503174542 13 29 8.0 9.7 0.00 0.00 0.00 38 1011.9
20260503174038 13 341 6.4 9.7 0.00 0.00 0.00 37 1011.9
20260503173533 13 250 11.3 12.9 0.00 0.00 0.00 36 1011.6
20260503173030 12 324 8.0 11.3 0.00 0.00 0.00 37 1011.9
20260503172527 12 17 14.5 24.1 0.00 0.00 0.00 38 1011.9
20260503172024 13 176 6.4 11.3 0.00 0.00 0.00 39 1012.0
20260503171521 12 330 8.0 11.3 0.00 0.00 0.00 39 1012.2
20260503171018 12 314 12.9 22.5 0.00 0.00 0.00 37 1012.1
20260503170514 12 22 4.8 8.0 0.00 0.00 0.00 39 1012.1
20260503150907 10 31 6.4 9.7 0.00 0.00 0.00 45 1013.0
20260503150403 8 5 3.2 4.8 0.00 0.00 0.00 52 1013.0